This is the latest recevied weather packets stored in our database for station/object K6CED. If no packets are shown the sender has not sent any weather packets the latest 10 day(s).
| Time | Temp. | Humidity | Pressure | Rain* | Wind** | Luminosity | Snow |
|---|---|---|---|---|---|---|---|
| 1788128225 | 32.78° C | 38% | 1013.7 hPa | 0 mm | - | 617 W/m² | - |
| 1788127922 | 32.78° C | 39% | 1013.7 hPa | 0 mm | - | 637 W/m² | - |
| 1788127617 | 33.33° C | 40% | 1013.9 hPa | 0 mm | - | 647 W/m² | - |
| 1788127315 | 33.33° C | 41% | 1013.7 hPa | 0 mm | - | 663 W/m² | - |
| 1788127015 | 33.33° C | 41% | 1014.1 hPa | 0 mm | - | 673 W/m² | - |
| 1788126709 | 32.78° C | 41% | 1013.9 hPa | 0 mm | - | 682 W/m² | - |
| 1788126405 | 32.78° C | 40% | 1013.8 hPa | 0 mm | - | 687 W/m² | - |
| 1788126099 | 33.33° C | 40% | 1014.3 hPa | 0 mm | - | 692 W/m² | - |
| 1788125798 | 33.33° C | 40% | 1014.1 hPa | 0 mm | - | 695 W/m² | - |
| 1788125494 | 33.33° C | 40% | 1014.3 hPa | 0 mm | - | 700 W/m² | - |
| 1788125190 | 32.78° C | 40% | 1014.5 hPa | 0 mm | - | 707 W/m² | - |
| 1788124885 | 33.33° C | 40% | 1014.4 hPa | 0 mm | - | 712 W/m² | - |
| 1788124580 | 33.89° C | 38% | 1014.4 hPa | 0 mm | - | 716 W/m² | - |
| 1788124279 | 33.33° C | 39% | 1014.2 hPa | 0 mm | - | 723 W/m² | - |
| 1788123975 | 32.78° C | 39% | 1014.4 hPa | 0 mm | - | 727 W/m² | - |
| 1788123674 | 33.33° C | 39% | 1014.5 hPa | 0 mm | - | 728 W/m² | - |
| 1788123371 | 32.78° C | 39% | 1014.6 hPa | 0 mm | - | 729 W/m² | - |
| 1788123067 | 32.78° C | 40% | 1014.5 hPa | 0 mm | - | 727 W/m² | - |
| 1788122766 | 32.78° C | 40% | 1014.6 hPa | 0 mm | - | 726 W/m² | - |
| 1788122465 | 32.78° C | 40% | 1014.7 hPa | 0 mm | - | 728 W/m² | - |
| 1788122161 | 32.78° C | 41% | 1014.8 hPa | 0 mm | - | 729 W/m² | - |
| 1788121856 | 32.22° C | 42% | 1014.6 hPa | 0 mm | - | 731 W/m² | - |
| 1788121556 | 32.78° C | 41% | 1014.6 hPa | 0 mm | - | 736 W/m² | - |
| 1788121252 | 32.78° C | 41% | 1014.7 hPa | 0 mm | - | 745 W/m² | - |
| 1788120951 | 32.78° C | 41% | 1014.8 hPa | 0 mm | - | 751 W/m² | - |
* Rain latest hour (hover to see other rain measurements)
** Current wind speed in m/s (hover to see current wind gust speed)